Location: Nelson
(41.2830°S, 173.2830°E)
Time: 05:45:21
(UTC+12:00)

Cosmos 405 Rocket - Pass Details

Date: 14 May 2021
Orbit: 488 x 553 km, 81.3° (Epoch: 16 June)

Event Time Altitude Azimuth Distance (km) Brightness Sun altitude
Rises 18:09:48 0° 4° (N) 2,565 6.4 -9.8°
Reaches altitude 10° 18:11:54 10° 9° (N) 1,698 5.4 -10.2°
Maximum altitude 18:15:31 50° 84° (E) 650 2.8 -10.8°
Drops below altitude 10° 18:19:15 10° 160° (SSE) 1,752 5.1 -11.5°
Sets 18:21:27 0° 165° (SSE) 2,658 6.0 -11.9°
Enters shadow 18:21:37 -1° 165° (SSE) 2,725 6.1 -11.9°
